Tracking 25701 objects as of 3-Jul-2022
HD Live streaming from Space Station
objects crossing your sky now

FENGYUN 1C DEB

Track FENGYUN 1C DEB now!
10-day predictions


NORAD ID: 31751
Int'l Code: 1999-025CFA
Perigee: 704.1 km
Apogee: 788.6 km
Inclination: 98.9 °
Period: 99.6 minutes
Semi major axis: 7117 km
RCS: 0.0135 m2 (small)
Launch date: May 10, 1999
Source: People's Republic of China (PRC)
Launch site: Taiyaun Space Center, China (TSC)

Note: This is SATELLITE DEBRIS
aabbcc
Your satellite tracking list
Your tracking list is empty




NASA's NSSDC Master Catalog

Two Line Element Set (TLE):
1 31751U 99025CFA 22181.69886575  .00003435  00000-0  95959-3 0  9995
2 31751  98.8769 351.1351 0059363 221.0434 138.6282 14.45866321790058
Source of the keplerian elements: AFSPC